This demonstration page uses our WeatherBlox Daily Observations layout. Learn more.

Left ArrowRight Arrow

40.92945, -100.16068

Hourly Observations for February 11, 2015

Temp ( °F °C ) Dew Point ( °F °C ) Humidity (%) Winds ( mph kmh ) Pressure ( in mb ) Visibility ( mi km ) Precip ( " mm )
12:15 am 00:15 Clear 40 4.5 35 1.9 83 83 N 7 11 30.24 1024 10 16 N/A
12:35 am 00:35 Partly Cloudy 39 4 34 1 81 81 N 10 17 30.24 1024 10 16 N/A
12:55 am 00:55 Mostly Cloudy 38 3.3 33 0.6 83 83 N 6 9 30.27 1025 10 16 N/A
1:15 am 01:15 Partly Cloudy 38 3.2 32 0 80 80 N 14 22 30.27 1025 10 16 N/A
1:35 am 01:35 Mostly Cloudy 36 2.2 30 -1.3 78 78 N 17 28 30.33 1027 10 16 N/A
1:55 am 01:55 Partly Cloudy 34 1.2 29 -1.8 81 81 N 14 22 30.36 1028 10 16 N/A
2:15 am 02:15 Clear 34 1 28 -2.1 80 80 NNW 16 26 30.36 1028 10 16 N/A
2:35 am 02:35 Clear 34 0.9 28 -2.5 78 78 NNW 20 31 30.36 1028 10 16 N/A
2:55 am 02:55 Clear 32 0.2 27 -3 79 79 N 16 26 30.42 1030 10 16 N/A
3:15 am 03:15 Clear 32 -0.1 26 -3.5 78 78 N 15 24 30.42 1030 10 16 N/A
3:35 am 03:35 Clear 32 -0.2 26 -3.6 78 78 N 17 28 30.42 1030 10 16 N/A
3:55 am 03:55 Partly Cloudy 32 -0.1 25 -3.7 77 77 N 18 30 30.42 1030 10 16 N/A
4:15 am 04:15 Clear 31 -0.5 25 -3.7 79 79 N 15 24 30.42 1030 10 16 N/A
4:35 am 04:35 Partly Cloudy 31 -0.5 25 -4.1 77 77 N 21 33 30.42 1030 10 16 N/A
4:55 am 04:55 Partly Cloudy 31 -0.7 24 -4.5 76 76 N 17 28 30.45 1031 10 16 N/A
5:15 am 05:15 Mostly Cloudy 30 -1 24 -4.6 77 77 NNW 16 26 30.45 1031 10 16 N/A
5:35 am 05:35 Mostly Cloudy 30 -1 24 -4.5 77 77 NNW 17 28 30.45 1031 10 16 N/A
5:55 am 05:55 Partly Cloudy 30 -1 24 -4.7 76 76 N 17 28 30.45 1031 10 16 N/A
6:15 am 06:15 Partly Cloudy 29 -1.7 23 -5 78 78 NNW 12 19 30.48 1032 10 16 N/A
6:35 am 06:35 Partly Cloudy 28 -2 23 -5.2 79 79 NNW 12 19 30.48 1032 10 16 N/A
6:55 am 06:55 Partly Cloudy 28 -2.5 22 -5.5 80 80 NNW 9 15 30.48 1032 10 16 N/A
7:15 am 07:15 Clear 28 -2.5 22 -5.5 80 80 NNW 9 15 30.53 1034 10 16 N/A
7:35 am 07:35 Clear 28 -2.5 22 -5.5 80 80 NNW 13 20 30.53 1034 10 16 N/A
7:55 am 07:55 Sunny 28 -2.3 22 -5.3 80 80 NNW 13 20 30.53 1034 10 16 N/A
8:15 am 08:15 Sunny 29 -1.8 23 -5.2 78 78 NNW 14 22 30.53 1034 10 16 N/A
8:35 am 08:35 Sunny 29 -1.5 23 -5.1 77 77 NNW 12 19 30.50 1033 10 16 N/A
8:55 am 08:55 Sunny 30 -1 23 -5 75 75 NNW 16 26 30.50 1033 10 16 N/A
9:15 am 09:15 Sunny 31 -0.8 22 -5.3 72 72 NNW 17 28 30.50 1033 10 16 N/A
9:35 am 09:35 Sunny 31 -0.4 23 -5.2 70 70 NNW 20 31 30.50 1033 10 16 N/A
9:55 am 09:55 Sunny 32 -0.2 22 -5.6 67 67 NNW 18 30 30.50 1033 10 16 N/A
10:15 am 10:15 Sunny 32 0.1 22 -5.4 67 67 NNW 18 30 30.50 1033 10 16 N/A
10:35 am 10:35 Sunny 33 0.7 22 -5.4 64 64 N 18 30 30.50 1033 10 16 N/A
10:55 am 10:55 Sunny 34 0.9 22 -5.5 63 63 NNW 20 31 30.50 1033 10 16 N/A
11:15 am 11:15 Sunny 34 1.3 22 -5.4 61 61 N 17 28 30.50 1033 10 16 N/A
11:35 am 11:35 Sunny 35 1.8 23 -4.8 62 62 NNW 17 28 30.48 1032 10 16 N/A
11:55 am 11:55 Sunny 36 2.3 24 -4.6 61 61 N 21 33 30.50 1033 10 16 N/A
12:15 pm 12:15 Sunny 37 2.5 24 -4.6 60 60 NNW 18 30 30.48 1032 10 16 N/A
12:35 pm 12:35 Sunny 38 3.1 24 -4.2 59 59 N 20 31 30.48 1032 10 16 N/A
12:55 pm 12:55 Sunny 39 3.7 25 -4 58 58 NNW 16 26 30.48 1032 10 16 N/A
1:15 pm 13:15 Sunny 39 4 25 -4 56 56 N 16 26 30.48 1032 10 16 N/A
1:35 pm 13:35 Sunny 40 4.7 25 -4 54 54 NNW 14 22 30.45 1031 10 16 N/A
1:55 pm 13:55 Sunny 41 5 25 -3.8 53 53 N 13 20 30.45 1031 10 16 N/A
2:15 pm 14:15 Sunny 42 5.7 25 -3.7 51 51 NNW 14 22 30.42 1030 10 16 N/A
2:35 pm 14:35 Sunny 43 6 25 -3.8 50 50 NNW 13 20 30.42 1030 10 16 N/A
2:55 pm 14:55 Sunny 44 6.5 25 -3.7 48 48 N 10 17 30.39 1029 10 16 N/A
3:15 pm 15:15 Sunny 45 7 25 -4.1 45 45 NNW 14 22 30.39 1029 10 16 N/A
3:35 pm 15:35 Sunny 45 7.4 26 -3.6 46 46 NNW 9 15 30.36 1028 10 16 N/A
3:55 pm 15:55 Sunny 45 7.3 25 -3.7 46 46 NNW 9 15 30.36 1028 10 16 N/A
4:15 pm 16:15 Sunny 46 7.5 26 -3.6 46 46 WNW 7 11 30.36 1028 10 16 N/A
4:35 pm 16:35 Sunny 46 7.6 25 -3.8 45 45 WNW 5 7 30.36 1028 10 16 N/A
4:55 pm 16:55 Sunny 46 8 26 -3.2 45 45 NW 6 9 30.36 1028 10 16 N/A
5:15 pm 17:15 Sunny 46 7.9 26 -3.4 45 45 WNW 5 7 30.36 1028 10 16 N/A
5:35 pm 17:35 Sunny 45 7.2 27 -2.8 49 49 Calm 30.36 1028 10 16 N/A
5:55 pm 17:55 Sunny 43 5.9 27 -2.6 55 55 ENE 5 7 30.39 1029 10 16 N/A
6:15 pm 18:15 Clear 40 4.2 27 -2.7 61 61 E 7 11 30.36 1028 10 16 N/A
6:35 pm 18:35 Clear 37 3 27 -3 65 65 E 6 9 30.42 1030 10 16 N/A
6:55 pm 18:55 Clear 36 2.2 26 -3.5 66 66 E 7 11 30.42 1030 10 16 N/A
7:15 pm 19:15 Clear 34 1.1 26 -3.6 71 71 E 7 11 30.42 1030 10 16 N/A
7:35 pm 19:35 Clear 32 0.2 25 -4 74 74 E 6 9 30.45 1031 10 16 N/A
7:55 pm 19:55 Partly Cloudy 31 -0.6 25 -4.1 77 77 NE 9 15 30.48 1032 10 16 N/A
8:15 pm 20:15 Mostly Cloudy 32 0 25 -3.7 76 76 NE 7 11 30.48 1032 10 16 N/A
8:35 pm 20:35 Cloudy 33 0.6 26 -3.6 74 74 NE 7 11 30.50 1033 10 16 N/A
8:55 pm 20:55 Cloudy 35 1.5 26 -3.6 69 69 NE 9 15 30.48 1032 10 16 N/A
9:15 pm 21:15 Cloudy 35 1.5 25 -3.8 68 68 NE 8 13 30.48 1032 10 16 N/A
9:35 pm 21:35 Cloudy 35 1.4 25 -4 68 68 NE 7 11 30.50 1033 10 16 N/A
9:55 pm 21:55 Mostly Cloudy 34 1 25 -4.1 69 69 NE 8 13 30.50 1033 10 16 N/A
10:15 pm 22:15 Mostly Cloudy 33 0.3 24 -4.5 70 70 NE 9 15 30.50 1033 10 16 N/A
10:35 pm 22:35 Mostly Cloudy 32 -0.1 23 -5.2 69 69 ENE 9 15 30.50 1033 10 16 N/A
10:55 pm 22:55 Partly Cloudy 31 -0.8 22 -5.3 72 72 ENE 9 15 30.50 1033 10 16 N/A
11:15 pm 23:15 Partly Cloudy 30 -1.1 22 -5.3 73 73 NE 10 17 30.53 1034 10 16 N/A
11:35 pm 23:35 Partly Cloudy 30 -1 21 -6 69 69 NE 13 20 30.53 1034 10 16 N/A
11:55 pm 23:55 Partly Cloudy 29 -1.9 21 -6.2 73 73 NE 9 15 30.56 1035 10 16 N/A

Powered by AerisWeather